Regional Weather Roundup
Issued by NWS Cleveland, OH

Home | Current Version | Previous Version | Graphics & Text | Print | Product List | Glossary On
Versions: 1 2 3 4 5 6 7 8 9 10 11 12 13 14 15 16 17 18 19 20 21 22 23 24 25 26 27 28 29 30 31 32 33 34 35 36 37 38 39 40 41 42 43 44 45 46 47 48 49 50
000
ASUS41 KCLE 300710
RWRCLE
OHIO REGIONAL WEATHER ROUNDUP
NATIONAL WEATHER SERVICE WILMINGTON, OH
300 AM EDT THU JUL 30 2015

NOTE: "FAIR" INDICATES FEW OR NO CLOUDS BELOW 12,000 FEET WITH NO
SIGNIFICANT WEATHER AND/OR OBSTRUCTIONS TO VISIBILITY.

OHZ001>008-015>018-024>027-034-035-043-044-300800-
   NORTHWEST OHIO

CITY           SKY/WX    TMP DP  RH WIND       PRES   REMARKS
DEFIANCE       MOCLDY    65  58  78 SW5       29.97F
FINDLAY        MOCLDY    66  60  81 SW3       29.97S
TOLEDO EXPRESS PTCLDY    65  60  84 W7        29.95F
TOLEDO EXEC    PTCLDY    68  60  75 W5        29.95F
LIMA           CLOUDY    67  60  78 W5        30.00R
$$

OHZ009>014-019>023-028>033-038-089-300800-
   NORTHEAST OHIO

CITY           SKY/WX    TMP DP  RH WIND       PRES   REMARKS
CLE-HOPKINS    MOCLDY    70  63  78 SW5       29.96F
CLE-LAKEFRONT  PTCLDY    77  63  61 W13       29.92S
CUY CO. ARPT   NOT AVBL
LORAIN-ELYRIA  MOCLDY    68  62  81 W5        29.95F
ASHTABULA      CLOUDY    73  69  87 W7        29.92S
AKRON-CANTON   CLOUDY    75  69  81 NW9       29.95S
WOOSTER        MOCLDY    71  66  84 NW6       29.97S
MANSFIELD      MOCLDY    71  62  73 NW6       29.98F
YOUNGSTOWN     CLOUDY    74  72  93 W3        29.93F THUNDER
$$

OHZ042-051>053-060>062-070>072-077>081-300800-
  SOUTHWEST OHIO

CITY           SKY/WX    TMP DP  RH WIND       PRES   REMARKS
CINC-COVINGTON CLOUDY    74  64  71 NW12      30.00F
CINC-LUNKEN    MOCLDY    76  70  82 NW5       29.99S
HAMILTON       CLOUDY    76  68  76 W6        30.00S
DAYTON         CLOUDY    72  67  84 NW7       30.01S
WRIGHT-PAT AFB CLOUDY    75  64  69 VRB3      29.99S
DAYTON GENERAL CLOUDY    76  65  68 N8        29.99S
WILMINGTON     CLOUDY    75  73  93 N7        29.99S FOG
$$

OHZ036-037-039>041-045>050-054>059-063>069-073>076-082>088-300800-
  CENTRAL AND SOUTHEAST OHIO

CITY           SKY/WX    TMP DP  RH WIND       PRES   REMARKS
COLUMBUS       MOCLDY    74  68  81 N7        29.96S
OSU AIRPORT    MOCLDY    72  63  73 NW8       29.97S
BOLTON FIELD   MOCLDY    73  67  83 NW6       29.98S
RICKENBACK AFB CLOUDY    75  70  85 N9        29.96S
NEWARK         MOCLDY    75  71  87 NW9       29.96R
MARION         MOCLDY    70  63  78 NW3       29.99S
LANCASTER      CLOUDY    75  72  90 NW5       29.97S
ZANESVILLE     MOCLDY    73  70  90 W3        29.95F
NEW PHILLY     MOCLDY    75  71  87 W6        29.94F
$$



USA.gov is the U.S. government's official web portal to all federal, state and local government web resources and services.